Time,TemperatureF,DewpointF,PressureIn,WindDirection,WindDirectionDegrees,WindSpeedMPH,WindSpeedGustMPH,Humidity,HourlyPrecipIn,Conditions,Clouds,dailyrainin,SoftwareType,DateUTC
2013-03-27 00:03:00,52.7,48.6,29.64,NE,45,0.4,0.0,86,0.00,,,0.00,,2013-03-26 23:03:00,
2013-03-27 00:08:00,52.7,48.6,29.64,NE,45,0.0,0.0,86,0.00,,,0.00,,2013-03-26 23:08:00,
2013-03-27 00:13:00,52.7,48.6,29.64,NE,45,0.0,0.0,86,0.00,,,0.00,,2013-03-26 23:13:00,
2013-03-27 00:18:00,52.9,48.7,29.67,NE,45,0.0,1.3,86,0.00,,,0.00,,2013-03-26 23:18:00,
2013-03-27 00:23:00,52.9,48.7,29.67,NE,45,1.3,1.7,86,0.00,,,0.00,,2013-03-26 23:23:00,
2013-03-27 00:28:00,52.7,48.6,29.67,NE,45,1.3,3.1,86,0.00,,,0.00,,2013-03-26 23:28:00,
2013-03-27 00:38:00,52.9,48.7,29.67,NE,45,1.7,2.6,86,0.00,,,0.00,,2013-03-26 23:38:00,
2013-03-27 00:43:00,52.9,48.7,29.67,North,0,1.7,2.6,86,0.00,,,0.00,,2013-03-26 23:43:00,
2013-03-27 00:48:00,52.9,48.7,29.67,North,0,1.3,1.7,86,0.00,,,0.00,,2013-03-26 23:48:00,
2013-03-27 00:53:00,53.1,48.9,29.67,North,0,1.3,1.7,86,0.00,,,0.00,,2013-03-26 23:53:00,
2013-03-27 01:03:00,53.1,48.9,29.67,North,0,0.4,2.6,86,0.00,,,0.00,,2013-03-27 00:03:00,
2013-03-27 01:08:00,52.9,48.7,29.64,North,0,0.0,0.0,86,0.00,,,0.00,,2013-03-27 00:08:00,
2013-03-27 01:13:00,52.9,48.7,29.64,North,0,0.0,0.0,86,0.00,,,0.00,,2013-03-27 00:13:00,
2013-03-27 01:18:00,52.7,48.6,29.67,North,0,0.8,0.0,86,0.00,,,0.00,,2013-03-27 00:18:00,
2013-03-27 01:23:00,52.7,48.6,29.67,North,0,1.7,0.0,86,0.00,,,0.00,,2013-03-27 00:23:00,
2013-03-27 01:28:00,52.7,48.6,29.67,North,0,1.3,1.3,86,0.00,,,0.00,,2013-03-27 00:28:00,
2013-03-27 01:33:00,52.7,48.6,29.67,North,0,1.7,3.1,86,0.00,,,0.00,,2013-03-27 00:33:00,
2013-03-27 01:38:00,52.7,48.6,29.67,NE,45,0.8,1.3,86,0.00,,,0.00,,2013-03-27 00:38:00,
2013-03-27 01:43:00,52.5,48.4,29.67,NE,45,2.2,4.0,86,0.00,,,0.00,,2013-03-27 00:43:00,
2013-03-27 01:48:00,52.5,48.4,29.67,NE,45,2.2,2.2,86,0.00,,,0.00,,2013-03-27 00:48:00,
2013-03-27 01:53:00,52.5,48.4,29.67,North,0,1.7,2.6,86,0.00,,,0.00,,2013-03-27 00:53:00,
2013-03-27 01:58:00,52.5,48.4,29.67,NW,315,2.6,5.8,86,0.00,,,0.00,,2013-03-27 00:58:00,
2013-03-27 02:03:00,52.7,48.6,29.67,NNE,22,2.2,5.3,86,0.00,,,0.00,,2013-03-27 01:03:00,
2013-03-27 02:08:00,52.7,48.6,29.67,NE,45,1.7,2.6,86,0.00,,,0.00,,2013-03-27 01:08:00,
2013-03-27 02:13:00,52.7,48.6,29.67,NNW,337,1.7,1.7,86,0.00,,,0.00,,2013-03-27 01:13:00,
2013-03-27 02:18:00,52.5,48.4,29.70,North,0,0.4,0.4,86,0.00,,,0.00,,2013-03-27 01:18:00,
2013-03-27 02:23:00,52.5,48.4,29.70,NW,315,1.3,2.2,86,0.00,,,0.00,,2013-03-27 01:23:00,
2013-03-27 02:28:00,52.5,48.4,29.70,NW,315,0.4,2.2,86,0.00,,,0.00,,2013-03-27 01:28:00,
2013-03-27 02:33:00,52.5,48.4,29.70,North,0,0.4,0.0,86,0.00,,,0.00,,2013-03-27 01:33:00,
2013-03-27 02:38:00,52.3,48.2,29.67,NE,45,0.8,0.8,86,0.00,,,0.00,,2013-03-27 01:38:00,
2013-03-27 02:43:00,52.3,48.2,29.67,NE,45,1.3,1.3,86,0.00,,,0.00,,2013-03-27 01:43:00,
2013-03-27 02:48:00,52.3,48.2,29.67,North,0,2.2,4.9,86,0.00,,,0.00,,2013-03-27 01:48:00,
2013-03-27 02:53:00,52.3,48.2,29.67,North,0,0.8,0.0,86,0.00,,,0.00,,2013-03-27 01:53:00,
2013-03-27 03:03:00,52.3,48.2,29.70,NE,45,2.2,3.1,86,0.00,,,0.00,,2013-03-27 02:03:00,
2013-03-27 03:08:00,52.2,48.0,29.67,NE,45,2.2,3.5,86,0.00,,,0.00,,2013-03-27 02:08:00,
2013-03-27 03:18:00,52.2,48.0,29.70,North,0,1.7,1.7,86,0.00,,,0.00,,2013-03-27 02:18:00,
2013-03-27 03:23:00,52.0,47.8,29.70,NNE,22,1.7,2.6,86,0.00,,,0.00,,2013-03-27 02:23:00,
2013-03-27 03:28:00,52.0,47.8,29.70,North,0,1.3,2.6,86,0.00,,,0.00,,2013-03-27 02:28:00,
2013-03-27 03:33:00,51.8,47.7,29.70,NW,315,0.8,0.8,86,0.00,,,0.00,,2013-03-27 02:33:00,
2013-03-27 03:38:00,51.8,47.7,29.70,North,0,0.4,2.6,86,0.00,,,0.00,,2013-03-27 02:38:00,
2013-03-27 03:43:00,51.6,47.5,29.70,North,0,0.8,1.7,86,0.00,,,0.00,,2013-03-27 02:43:00,
2013-03-27 03:48:00,51.6,47.5,29.70,North,0,0.8,2.6,86,0.00,,,0.00,,2013-03-27 02:48:00,
2013-03-27 03:53:00,51.6,47.5,29.70,North,0,0.0,2.6,86,0.00,,,0.00,,2013-03-27 02:53:00,
2013-03-27 03:58:00,51.4,47.3,29.70,NNW,337,1.7,3.1,86,0.00,,,0.00,,2013-03-27 02:58:00,
2013-03-27 04:03:00,51.4,47.3,29.70,NW,315,0.8,2.2,86,0.00,,,0.00,,2013-03-27 03:03:00,
2013-03-27 04:08:00,51.3,47.1,29.67,North,0,0.8,1.3,86,0.00,,,0.00,,2013-03-27 03:08:00,
2013-03-27 04:13:00,51.3,47.1,29.67,North,0,0.0,0.0,86,0.00,,,0.00,,2013-03-27 03:13:00,
2013-03-27 04:18:00,51.3,47.1,29.67,North,0,0.0,0.0,86,0.00,,,0.00,,2013-03-27 03:18:00,
2013-03-27 04:23:00,51.3,47.1,29.67,North,0,0.8,1.7,86,0.00,,,0.00,,2013-03-27 03:23:00,
2013-03-27 04:28:00,51.1,46.9,29.70,NE,45,0.8,0.0,86,0.00,,,0.00,,2013-03-27 03:28:00,
2013-03-27 04:33:00,50.9,46.8,29.70,NE,45,1.7,3.1,86,0.00,,,0.00,,2013-03-27 03:33:00,
2013-03-27 04:38:00,50.7,46.2,29.70,NE,45,2.6,3.1,85,0.00,,,0.00,,2013-03-27 03:38:00,
2013-03-27 04:43:00,50.5,46.0,29.70,NE,45,1.7,2.2,85,0.00,,,0.00,,2013-03-27 03:43:00,
2013-03-27 04:48:00,50.4,45.9,29.70,NE,45,2.6,3.5,85,0.00,,,0.00,,2013-03-27 03:48:00,
2013-03-27 04:53:00,50.4,45.9,29.70,NE,45,2.6,3.5,85,0.00,,,0.00,,2013-03-27 03:53:00,
2013-03-27 04:58:00,50.2,45.7,29.70,NNE,22,2.2,2.2,85,0.00,,,0.00,,2013-03-27 03:58:00,
2013-03-27 05:03:00,50.2,45.7,29.70,NE,45,1.3,2.2,85,0.00,,,0.00,,2013-03-27 04:03:00,
2013-03-27 05:08:00,50.0,45.5,29.70,NW,315,0.4,1.7,85,0.00,,,0.00,,2013-03-27 04:08:00,
2013-03-27 05:13:00,50.0,45.5,29.70,NW,315,0.4,0.0,85,0.00,,,0.00,,2013-03-27 04:13:00,
2013-03-27 05:23:00,49.8,45.3,29.70,NW,315,0.0,0.0,85,0.00,,,0.00,,2013-03-27 04:23:00,
2013-03-27 05:28:00,49.8,45.3,29.70,NW,315,0.4,2.2,85,0.00,,,0.00,,2013-03-27 04:28:00,
2013-03-27 05:33:00,49.6,45.1,29.70,North,0,0.8,1.3,85,0.00,,,0.00,,2013-03-27 04:33:00,
2013-03-27 05:38:00,49.6,45.1,29.70,NE,45,2.2,4.0,85,0.00,,,0.00,,2013-03-27 04:38:00,
2013-03-27 05:48:00,49.3,45.1,29.70,NE,45,1.3,1.3,86,0.00,,,0.00,,2013-03-27 04:48:00,
2013-03-27 05:58:00,48.9,44.8,29.67,North,0,1.7,3.5,86,0.00,,,0.00,,2013-03-27 04:58:00,
2013-03-27 06:03:00,48.7,44.4,29.67,North,0,3.1,4.0,85,0.00,,,0.00,,2013-03-27 05:03:00,
2013-03-27 06:08:00,48.6,44.4,29.67,NE,45,3.5,3.5,86,0.00,,,0.00,,2013-03-27 05:08:00,
2013-03-27 06:13:00,48.6,44.4,29.67,NE,45,3.5,5.3,86,0.00,,,0.00,,2013-03-27 05:13:00,
2013-03-27 06:18:00,48.6,44.4,29.67,NNE,22,2.6,2.6,86,0.00,,,0.00,,2013-03-27 05:18:00,
2013-03-27 06:23:00,48.6,44.4,29.67,NE,45,2.6,4.0,86,0.00,,,0.00,,2013-03-27 05:23:00,
2013-03-27 06:28:00,48.6,44.4,29.70,NE,45,4.0,4.0,86,0.00,,,0.00,,2013-03-27 05:28:00,
2013-03-27 06:38:00,48.7,44.6,29.70,North,0,2.2,2.6,86,0.00,,,0.00,,2013-03-27 05:38:00,
2013-03-27 06:43:00,48.9,44.8,29.70,NNE,22,1.7,3.5,86,0.00,,,0.00,,2013-03-27 05:43:00,
2013-03-27 06:48:00,48.9,44.8,29.70,North,0,3.5,4.9,86,0.00,,,0.00,,2013-03-27 05:48:00,
2013-03-27 06:53:00,48.9,44.8,29.70,NE,45,3.1,3.1,86,0.00,,,0.00,,2013-03-27 05:53:00,
2013-03-27 06:58:00,49.3,45.1,29.73,NE,45,3.5,3.5,86,0.00,,,0.00,,2013-03-27 05:58:00,
2013-03-27 07:03:00,49.3,45.1,29.73,NE,45,4.4,6.2,86,0.00,,,0.00,,2013-03-27 06:03:00,
2013-03-27 07:08:00,49.5,45.3,29.70,NE,45,4.0,4.9,86,0.00,,,0.00,,2013-03-27 06:08:00,
2013-03-27 07:13:00,49.5,45.0,29.70,NE,45,4.0,4.0,85,0.00,,,0.00,,2013-03-27 06:13:00,
2013-03-27 07:18:00,49.5,45.0,29.70,NE,45,3.1,3.5,85,0.00,,,0.00,,2013-03-27 06:18:00,
2013-03-27 07:23:00,49.6,45.1,29.70,NE,45,2.2,4.4,85,0.00,,,0.00,,2013-03-27 06:23:00,
2013-03-27 07:28:00,49.8,45.3,29.70,NE,45,3.1,5.8,85,0.00,,,0.00,,2013-03-27 06:28:00,
2013-03-27 07:33:00,49.8,45.1,29.70,NE,45,2.6,4.9,84,0.00,,,0.00,,2013-03-27 06:33:00,
2013-03-27 07:38:00,49.8,45.1,29.73,NW,315,2.6,3.1,84,0.00,,,0.00,,2013-03-27 06:38:00,
2013-03-27 07:43:00,50.0,45.3,29.73,NE,45,1.7,3.5,84,0.00,,,0.00,,2013-03-27 06:43:00,
2013-03-27 07:48:00,50.4,45.3,29.73,NE,45,3.1,3.5,83,0.00,,,0.00,,2013-03-27 06:48:00,
2013-03-27 07:53:00,50.4,45.3,29.73,NE,45,2.2,3.1,83,0.00,,,0.00,,2013-03-27 06:53:00,
2013-03-27 07:58:00,50.4,45.3,29.73,NE,45,2.6,4.9,83,0.00,,,0.00,,2013-03-27 06:58:00,
2013-03-27 08:03:00,50.2,44.8,29.73,North,0,4.0,5.3,82,0.00,,,0.00,,2013-03-27 07:03:00,
2013-03-27 08:08:00,50.4,45.0,29.73,NE,45,4.0,4.0,82,0.00,,,0.00,,2013-03-27 07:08:00,
2013-03-27 08:13:00,50.5,45.1,29.73,NE,45,2.6,4.0,82,0.00,,,0.00,,2013-03-27 07:13:00,
2013-03-27 08:23:00,50.7,45.3,29.70,NE,45,2.6,3.1,82,0.00,,,0.00,,2013-03-27 07:23:00,
2013-03-27 08:28:00,51.1,45.7,29.73,NE,45,2.6,2.6,82,0.00,,,0.00,,2013-03-27 07:28:00,
2013-03-27 08:33:00,51.6,46.2,29.73,NE,45,2.6,4.4,82,-99.99,,,0.00,,2013-03-27 07:33:00,
2013-03-27 08:38:00,52.2,46.8,29.73,NE,45,1.3,3.1,82,-99.99,,,0.00,,2013-03-27 07:38:00,
2013-03-27 08:43:00,52.5,47.1,29.73,NE,45,1.7,3.1,82,-99.99,,,0.00,,2013-03-27 07:43:00,
2013-03-27 08:48:00,53.1,47.3,29.73,NE,45,2.6,0.0,81,-99.99,,,0.00,,2013-03-27 07:48:00,
2013-03-27 08:53:00,53.2,47.5,29.73,NE,45,2.2,0.0,81,-99.99,,,0.00,,2013-03-27 07:53:00,
2013-03-27 08:58:00,53.6,47.5,29.73,NE,45,2.2,2.2,80,-99.99,,,0.00,,2013-03-27 07:58:00,
2013-03-27 09:03:00,54.1,48.0,29.73,NE,45,3.1,3.1,80,-99.99,,,0.00,,2013-03-27 08:03:00,
2013-03-27 09:08:00,55.0,48.9,29.70,ENE,67,0.8,3.1,80,-99.99,,,0.00,,2013-03-27 08:08:00,
2013-03-27 09:13:00,55.6,49.1,29.70,SE,135,3.1,4.0,79,-99.99,,,0.00,,2013-03-27 08:13:00,
2013-03-27 09:23:00,55.9,49.1,29.73,East,90,0.8,5.8,78,-99.99,,,0.00,,2013-03-27 08:23:00,
2013-03-27 09:28:00,56.5,49.3,29.76,East,90,2.6,2.6,77,-99.99,,,0.00,,2013-03-27 08:28:00,
2013-03-27 09:33:00,56.7,49.1,29.76,East,90,2.2,2.2,76,-99.99,,,0.00,,2013-03-27 08:33:00,
2013-03-27 09:38:00,57.4,50.2,29.73,East,90,0.8,1.3,77,-99.99,,,0.00,,2013-03-27 08:38:00,
2013-03-27 09:43:00,57.9,50.4,29.73,East,90,0.4,0.0,76,-99.99,,,0.00,,2013-03-27 08:43:00,
2013-03-27 09:48:00,58.8,51.3,29.73,East,90,0.8,0.8,76,-99.99,,,0.00,,2013-03-27 08:48:00,
2013-03-27 09:53:00,59.4,51.6,29.73,East,90,0.0,0.8,76,-99.99,,,0.00,,2013-03-27 08:53:00,
2013-03-27 09:58:00,59.4,51.3,29.76,East,90,0.8,0.8,75,-99.99,,,0.00,,2013-03-27 08:58:00,
2013-03-27 10:03:00,59.9,51.4,29.76,SE,135,0.4,1.3,74,-99.99,,,0.00,,2013-03-27 09:03:00,
2013-03-27 10:08:00,60.3,51.4,29.76,East,90,0.8,1.7,73,-99.99,,,0.00,,2013-03-27 09:08:00,
2013-03-27 10:13:00,60.1,51.3,29.76,East,90,0.8,1.7,73,-99.99,,,0.00,,2013-03-27 09:13:00,
2013-03-27 10:18:00,60.3,50.7,29.76,SE,135,1.7,1.7,71,-99.99,,,0.00,,2013-03-27 09:18:00,
2013-03-27 10:23:00,60.3,50.7,29.76,SW,225,0.4,1.3,71,-99.99,,,0.00,,2013-03-27 09:23:00,
2013-03-27 10:28:00,60.6,51.1,29.76,SE,135,0.8,1.7,71,-99.99,,,0.00,,2013-03-27 09:28:00,
2013-03-27 10:33:00,60.8,51.3,29.76,SE,135,0.4,2.6,71,-99.99,,,0.00,,2013-03-27 09:33:00,
2013-03-27 10:38:00,60.6,51.1,29.76,SE,135,1.7,0.0,71,-99.99,,,0.00,,2013-03-27 09:38:00,
2013-03-27 10:43:00,61.0,51.1,29.76,SW,225,3.1,0.0,70,-99.99,,,0.00,,2013-03-27 09:43:00,
2013-03-27 10:48:00,60.6,50.7,29.79,SE,135,3.1,4.9,70,-99.99,,,0.00,,2013-03-27 09:48:00,
2013-03-27 10:53:00,60.1,50.2,29.79,SE,135,2.6,4.0,70,-99.99,,,0.00,,2013-03-27 09:53:00,
2013-03-27 10:58:00,60.3,50.7,29.76,East,90,1.3,1.7,71,-99.99,,,0.00,,2013-03-27 09:58:00,
2013-03-27 11:03:00,60.8,51.3,29.76,East,90,1.3,1.7,71,-99.99,,,0.00,,2013-03-27 10:03:00,
2013-03-27 11:08:00,61.0,51.1,29.76,East,90,0.4,0.0,70,-99.99,,,0.00,,2013-03-27 10:08:00,
2013-03-27 11:13:00,61.7,51.3,29.76,SE,135,2.2,3.1,69,-99.99,,,0.00,,2013-03-27 10:13:00,
2013-03-27 11:18:00,62.2,51.8,29.76,SW,225,0.8,2.6,69,-99.99,,,0.00,,2013-03-27 10:18:00,
2013-03-27 11:23:00,62.8,52.0,29.76,SW,225,0.8,2.6,68,-99.99,,,0.00,,2013-03-27 10:23:00,
2013-03-27 11:28:00,62.2,51.1,29.76,South,180,0.4,1.7,67,-99.99,,,0.00,,2013-03-27 10:28:00,
2013-03-27 11:33:00,62.4,51.3,29.76,NW,315,0.8,2.6,67,-99.99,,,0.00,,2013-03-27 10:33:00,
2013-03-27 11:38:00,62.6,50.9,29.76,SW,225,2.2,4.0,66,-99.99,,,0.00,,2013-03-27 10:38:00,
2013-03-27 11:43:00,62.4,51.3,29.76,South,180,2.6,3.1,67,-99.99,,,0.00,,2013-03-27 10:43:00,
2013-03-27 11:48:00,62.4,50.9,29.73,South,180,1.7,1.7,66,-99.99,,,0.00,,2013-03-27 10:48:00,
2013-03-27 11:53:00,62.4,51.3,29.73,SW,225,1.3,2.2,67,-99.99,,,0.00,,2013-03-27 10:53:00,
2013-03-27 11:58:00,62.4,51.3,29.76,SW,225,2.2,2.2,67,-99.99,,,0.00,,2013-03-27 10:58:00,
2013-03-27 12:03:00,62.1,50.5,29.76,SW,225,2.6,4.4,66,0.00,,,0.00,,2013-03-27 11:03:00,
2013-03-27 12:08:00,62.2,50.2,29.79,SW,225,3.1,4.4,65,0.00,,,0.00,,2013-03-27 11:08:00,
2013-03-27 12:13:00,62.6,50.9,29.79,SW,225,0.8,0.0,66,0.00,,,0.00,,2013-03-27 11:13:00,
2013-03-27 12:23:00,62.8,50.4,29.79,South,180,3.1,5.8,64,0.00,,,0.00,,2013-03-27 11:23:00,
2013-03-27 12:28:00,62.6,50.5,29.79,SW,225,0.8,2.2,65,0.00,,,0.00,,2013-03-27 11:28:00,
2013-03-27 12:38:00,63.0,50.9,29.79,SW,225,0.0,0.0,65,0.00,,,0.00,,2013-03-27 11:38:00,
2013-03-27 12:43:00,63.0,49.6,29.79,SW,225,3.1,3.1,62,0.00,,,0.00,,2013-03-27 11:43:00,
2013-03-27 12:48:00,63.1,50.2,29.76,SSW,202,2.6,2.6,63,0.00,,,0.00,,2013-03-27 11:48:00,
2013-03-27 12:53:00,63.1,49.8,29.76,SSW,202,3.1,3.5,62,0.00,,,0.00,,2013-03-27 11:53:00,
2013-03-27 12:58:00,63.0,49.6,29.76,SE,135,2.2,5.3,62,0.00,,,0.00,,2013-03-27 11:58:00,
2013-03-27 13:08:00,62.4,50.4,29.76,SE,135,1.3,3.5,65,0.00,,,0.00,,2013-03-27 12:08:00,
2013-03-27 13:13:00,62.4,50.4,29.76,SE,135,2.6,2.6,65,0.00,,,0.00,,2013-03-27 12:13:00,
2013-03-27 13:18:00,62.6,50.9,29.79,SW,225,0.0,0.0,66,0.00,,,0.00,,2013-03-27 12:18:00,
2013-03-27 13:23:00,63.1,50.7,29.79,SW,225,2.2,9.3,64,0.00,,,0.00,,2013-03-27 12:23:00,
2013-03-27 13:28:00,63.0,50.0,29.79,SW,225,5.3,5.3,63,0.00,,,0.00,,2013-03-27 12:28:00,
2013-03-27 13:33:00,63.0,50.5,29.79,SW,225,4.4,5.3,64,0.00,,,0.00,,2013-03-27 12:33:00,
2013-03-27 13:38:00,63.1,50.7,29.76,SW,225,1.7,5.3,64,0.00,,,0.00,,2013-03-27 12:38:00,
2013-03-27 13:43:00,63.1,48.9,29.76,SW,225,6.7,0.0,60,0.00,,,0.00,,2013-03-27 12:43:00,
2013-03-27 13:48:00,63.0,48.4,29.76,SW,225,8.0,9.8,59,0.00,,,0.00,,2013-03-27 12:48:00,
2013-03-27 13:53:00,63.0,48.4,29.76,SW,225,7.6,8.9,59,0.00,,,0.00,,2013-03-27 12:53:00,
2013-03-27 13:58:00,63.0,48.7,29.76,SW,225,8.0,11.1,60,0.00,,,0.00,,2013-03-27 12:58:00,
2013-03-27 14:03:00,63.3,50.0,29.76,SW,225,4.0,4.4,62,0.00,,,0.00,,2013-03-27 13:03:00,
2013-03-27 14:08:00,63.3,48.7,29.76,SW,225,7.6,8.9,59,0.00,,,0.00,,2013-03-27 13:08:00,
2013-03-27 14:13:00,63.1,48.9,29.76,SW,225,4.9,7.6,60,0.00,,,0.00,,2013-03-27 13:13:00,
2013-03-27 14:18:00,63.5,48.4,29.79,SW,225,2.6,3.5,58,0.00,,,0.00,,2013-03-27 13:18:00,
2013-03-27 14:23:00,63.5,48.4,29.79,South,180,2.2,2.2,58,0.00,,,0.00,,2013-03-27 13:23:00,
2013-03-27 14:28:00,63.9,48.7,29.76,SW,225,4.0,4.0,58,0.00,,,0.00,,2013-03-27 13:28:00,
2013-03-27 14:33:00,63.7,47.7,29.76,SW,225,4.4,4.4,56,0.00,,,0.00,,2013-03-27 13:33:00,
2013-03-27 14:38:00,63.9,48.7,29.79,South,180,4.4,5.3,58,0.00,,,0.00,,2013-03-27 13:38:00,
2013-03-27 14:43:00,63.9,48.2,29.79,SW,225,2.2,5.8,57,0.00,,,0.00,,2013-03-27 13:43:00,
2013-03-27 14:48:00,63.9,48.7,29.79,SW,225,4.9,5.3,58,0.00,,,0.00,,2013-03-27 13:48:00,
2013-03-27 14:58:00,63.7,48.9,29.79,SW,225,5.3,6.2,59,0.00,,,0.00,,2013-03-27 13:58:00,
2013-03-27 15:08:00,63.9,49.1,29.79,SW,225,5.8,8.9,59,0.00,,,0.00,,2013-03-27 14:08:00,
2013-03-27 15:13:00,63.7,49.5,29.79,SW,225,7.1,8.0,60,0.00,,,0.00,,2013-03-27 14:13:00,
2013-03-27 15:23:00,63.7,49.8,29.79,SW,225,4.4,8.0,61,0.00,,,0.00,,2013-03-27 14:23:00,
2013-03-27 15:28:00,63.5,48.7,29.79,SW,225,7.6,8.9,59,0.00,,,0.00,,2013-03-27 14:28:00,
2013-03-27 15:33:00,63.1,48.9,29.79,SW,225,8.5,9.3,60,0.00,,,0.00,,2013-03-27 14:33:00,
2013-03-27 15:38:00,62.8,48.6,29.76,SW,225,5.3,8.0,60,0.00,,,0.00,,2013-03-27 14:38:00,
2013-03-27 15:43:00,62.6,48.4,29.76,SW,225,6.7,7.6,60,0.00,,,0.00,,2013-03-27 14:43:00,
2013-03-27 15:48:00,62.6,48.4,29.76,SW,225,3.1,3.5,60,0.00,,,0.00,,2013-03-27 14:48:00,
2013-03-27 15:53:00,62.6,48.9,29.76,SW,225,4.9,4.9,61,0.00,,,0.00,,2013-03-27 14:53:00,
2013-03-27 15:58:00,62.6,48.9,29.76,SW,225,4.4,4.9,61,0.00,,,0.00,,2013-03-27 14:58:00,
2013-03-27 16:03:00,62.4,49.1,29.76,South,180,4.9,5.3,62,0.00,,,0.00,,2013-03-27 15:03:00,
2013-03-27 16:08:00,62.2,48.9,29.76,South,180,4.9,8.0,62,0.00,,,0.00,,2013-03-27 15:08:00,
2013-03-27 16:13:00,62.1,49.3,29.76,SW,225,5.8,8.9,63,0.00,,,0.00,,2013-03-27 15:13:00,
2013-03-27 16:18:00,62.1,49.3,29.79,SW,225,4.4,9.8,63,0.00,,,0.00,,2013-03-27 15:18:00,
2013-03-27 16:23:00,61.9,49.5,29.79,SW,225,5.3,6.2,64,0.00,,,0.00,,2013-03-27 15:23:00,
2013-03-27 16:28:00,61.9,49.5,29.76,SE,135,4.0,4.0,64,0.00,,,0.00,,2013-03-27 15:28:00,
2013-03-27 16:33:00,61.9,49.8,29.76,SW,225,2.6,5.3,65,0.00,,,0.00,,2013-03-27 15:33:00,
2013-03-27 16:38:00,61.7,50.2,29.79,SW,225,3.1,5.3,66,0.00,,,0.00,,2013-03-27 15:38:00,
2013-03-27 16:43:00,61.5,49.5,29.79,SW,225,4.0,8.5,65,0.00,,,0.00,,2013-03-27 15:43:00,
2013-03-27 16:48:00,61.3,49.5,29.79,SW,225,3.5,3.5,65,0.00,,,0.00,,2013-03-27 15:48:00,
2013-03-27 16:53:00,61.5,50.0,29.79,SW,225,1.7,1.7,66,0.00,,,0.00,,2013-03-27 15:53:00,
2013-03-27 16:58:00,61.3,50.2,29.79,SSE,157,4.0,4.4,67,0.00,,,0.00,,2013-03-27 15:58:00,
2013-03-27 17:03:00,61.2,50.4,29.79,SW,225,3.1,0.0,68,0.00,,,0.00,,2013-03-27 16:03:00,
2013-03-27 17:08:00,61.0,50.7,29.82,SW,225,1.7,5.3,69,0.00,,,0.00,,2013-03-27 16:08:00,
2013-03-27 17:13:00,61.0,51.1,29.82,SW,225,2.6,5.3,70,0.00,,,0.00,,2013-03-27 16:13:00,
2013-03-27 17:18:00,60.6,51.1,29.82,SW,225,4.0,4.0,71,0.00,,,0.00,,2013-03-27 16:18:00,
2013-03-27 17:23:00,60.4,51.6,29.82,SW,225,4.4,4.4,73,0.00,,,0.00,,2013-03-27 16:23:00,
2013-03-27 17:28:00,60.3,51.4,29.79,SW,225,3.1,4.4,73,0.00,,,0.00,,2013-03-27 16:28:00,
2013-03-27 17:33:00,60.1,51.6,29.79,SW,225,4.4,4.4,74,0.00,,,0.00,,2013-03-27 16:33:00,
2013-03-27 17:38:00,60.1,51.6,29.82,SE,135,1.7,1.7,74,0.00,,,0.00,,2013-03-27 16:38:00,
2013-03-27 17:43:00,59.9,51.4,29.82,South,180,2.6,4.9,74,0.00,,,0.00,,2013-03-27 16:43:00,
2013-03-27 17:48:00,59.7,51.6,29.79,South,180,2.2,4.9,75,0.00,,,0.00,,2013-03-27 16:48:00,
2013-03-27 17:53:00,59.7,51.6,29.79,SW,225,1.7,2.2,75,0.00,,,0.00,,2013-03-27 16:53:00,
2013-03-27 17:58:00,59.7,51.6,29.82,South,180,0.4,2.2,75,0.00,,,0.00,,2013-03-27 16:58:00,
2013-03-27 18:03:00,59.7,51.6,29.82,SE,135,0.8,1.7,75,0.00,,,0.00,,2013-03-27 17:03:00,
2013-03-27 18:08:00,59.5,51.8,29.82,SSE,157,2.6,3.5,76,0.00,,,0.00,,2013-03-27 17:08:00,
2013-03-27 18:13:00,59.4,51.6,29.82,SW,225,3.1,4.4,76,0.00,,,0.00,,2013-03-27 17:13:00,
2013-03-27 18:18:00,59.2,51.8,29.82,South,180,4.4,0.0,77,0.00,,,0.00,,2013-03-27 17:18:00,
2013-03-27 18:23:00,59.2,52.2,29.82,South,180,2.6,4.0,78,0.00,,,0.00,,2013-03-27 17:23:00,
2013-03-27 18:28:00,59.0,52.0,29.82,SE,135,2.6,2.6,78,0.00,,,0.00,,2013-03-27 17:28:00,
2013-03-27 18:33:00,59.0,52.0,29.82,SW,225,3.5,4.0,78,0.00,,,0.00,,2013-03-27 17:33:00,
2013-03-27 18:38:00,58.8,52.2,29.82,SE,135,3.1,4.4,79,0.00,,,0.00,,2013-03-27 17:38:00,
2013-03-27 18:48:00,58.6,51.6,29.82,SSE,157,2.2,2.6,78,0.00,,,0.00,,2013-03-27 17:48:00,
2013-03-27 18:53:00,58.6,51.6,29.82,South,180,2.2,2.6,78,0.00,,,0.00,,2013-03-27 17:53:00,
2013-03-27 18:58:00,58.5,51.8,29.82,South,180,3.1,4.4,79,0.00,,,0.00,,2013-03-27 17:58:00,
2013-03-27 19:03:00,58.5,51.8,29.82,South,180,1.3,2.6,79,0.00,,,0.00,,2013-03-27 18:03:00,
2013-03-27 19:08:00,58.3,51.6,29.82,SE,135,2.2,3.5,79,0.00,,,0.00,,2013-03-27 18:08:00,
2013-03-27 19:13:00,58.3,51.6,29.82,South,180,2.6,3.1,79,0.00,,,0.00,,2013-03-27 18:13:00,
2013-03-27 19:18:00,58.1,51.4,29.85,SE,135,1.7,4.4,79,0.00,,,0.00,,2013-03-27 18:18:00,
2013-03-27 19:23:00,58.1,51.4,29.85,South,180,0.4,1.3,79,0.00,,,0.00,,2013-03-27 18:23:00,
2013-03-27 19:28:00,57.9,51.4,29.85,South,180,1.7,1.7,79,0.00,,,0.00,,2013-03-27 18:28:00,
2013-03-27 19:33:00,57.9,51.4,29.85,South,180,2.2,2.2,79,0.00,,,0.00,,2013-03-27 18:33:00,
2013-03-27 19:38:00,57.9,51.4,29.85,South,180,1.7,3.1,79,0.00,,,0.00,,2013-03-27 18:38:00,
2013-03-27 19:43:00,57.7,51.3,29.85,SE,135,2.2,2.6,79,0.00,,,0.00,,2013-03-27 18:43:00,
2013-03-27 19:48:00,57.7,51.3,29.82,SE,135,2.2,2.6,79,0.00,,,0.00,,2013-03-27 18:48:00,
2013-03-27 19:53:00,57.7,51.4,29.82,South,180,2.6,2.6,80,0.00,,,0.00,,2013-03-27 18:53:00,
2013-03-27 19:58:00,57.6,51.3,29.85,SE,135,1.7,2.2,80,0.00,,,0.00,,2013-03-27 18:58:00,
2013-03-27 20:03:00,57.6,51.3,29.85,SE,135,1.3,2.2,80,0.00,,,0.00,,2013-03-27 19:03:00,
2013-03-27 20:08:00,57.6,51.3,29.85,SE,135,2.2,4.4,80,0.00,,,0.00,,2013-03-27 19:08:00,
2013-03-27 20:13:00,57.6,51.3,29.85,SE,135,1.7,1.7,80,0.00,,,0.00,,2013-03-27 19:13:00,
2013-03-27 20:18:00,57.6,51.6,29.85,SE,135,2.2,2.6,81,0.00,,,0.00,,2013-03-27 19:18:00,
2013-03-27 20:23:00,57.6,51.6,29.85,SE,135,1.7,3.1,81,0.00,,,0.00,,2013-03-27 19:23:00,
2013-03-27 20:28:00,57.6,51.6,29.88,SE,135,1.3,3.1,81,0.00,,,0.00,,2013-03-27 19:28:00,
2013-03-27 20:33:00,57.4,51.4,29.88,SE,135,1.7,4.9,81,0.00,,,0.00,,2013-03-27 19:33:00,
2013-03-27 20:38:00,57.4,51.4,29.88,South,180,0.8,2.6,81,0.00,,,0.00,,2013-03-27 19:38:00,
2013-03-27 20:43:00,57.4,51.4,29.88,South,180,3.1,4.0,81,0.00,,,0.00,,2013-03-27 19:43:00,
2013-03-27 20:48:00,57.4,51.4,29.88,SE,135,1.7,2.6,81,0.00,,,0.00,,2013-03-27 19:48:00,
2013-03-27 20:53:00,57.4,51.8,29.88,South,180,2.2,2.2,82,0.00,,,0.00,,2013-03-27 19:53:00,
2013-03-27 20:58:00,57.2,51.6,29.88,South,180,2.6,4.0,82,0.00,,,0.00,,2013-03-27 19:58:00,
2013-03-27 21:03:00,57.2,51.6,29.88,SSE,157,1.7,3.1,82,0.00,,,0.00,,2013-03-27 20:03:00,
2013-03-27 21:08:00,57.0,51.4,29.88,SE,135,3.1,4.4,82,0.00,,,0.00,,2013-03-27 20:08:00,
2013-03-27 21:13:00,57.0,51.4,29.88,SE,135,2.2,4.0,82,0.00,,,0.00,,2013-03-27 20:13:00,
2013-03-27 21:18:00,57.0,51.4,29.88,SE,135,2.2,3.1,82,0.00,,,0.00,,2013-03-27 20:18:00,
2013-03-27 21:23:00,56.8,51.3,29.88,SE,135,1.3,3.1,82,0.00,,,0.00,,2013-03-27 20:23:00,
2013-03-27 21:28:00,56.8,51.3,29.88,South,180,2.2,2.2,82,0.00,,,0.00,,2013-03-27 20:28:00,
2013-03-27 21:33:00,56.8,51.3,29.88,South,180,1.7,1.7,82,0.00,,,0.00,,2013-03-27 20:33:00,
2013-03-27 21:38:00,56.8,51.3,29.88,South,180,0.8,0.8,82,0.00,,,0.00,,2013-03-27 20:38:00,
2013-03-27 21:43:00,56.7,51.1,29.88,South,180,1.7,1.7,82,0.00,,,0.00,,2013-03-27 20:43:00,
2013-03-27 21:48:00,56.8,51.6,29.91,South,180,0.8,0.8,83,0.00,,,0.00,,2013-03-27 20:48:00,
2013-03-27 21:53:00,56.8,51.6,29.91,South,180,0.8,1.7,83,0.00,,,0.00,,2013-03-27 20:53:00,
2013-03-27 21:58:00,56.8,51.6,29.91,South,180,0.0,0.0,83,0.00,,,0.00,,2013-03-27 20:58:00,
2013-03-27 22:03:00,56.7,51.4,29.91,South,180,0.8,0.0,83,0.00,,,0.00,,2013-03-27 21:03:00,
2013-03-27 22:08:00,56.7,51.4,29.94,South,180,1.7,2.6,83,0.00,,,0.00,,2013-03-27 21:08:00,
2013-03-27 22:13:00,56.7,51.4,29.94,South,180,0.8,1.7,83,0.00,,,0.00,,2013-03-27 21:13:00,
2013-03-27 22:18:00,56.7,51.4,29.91,South,180,1.3,1.3,83,0.00,,,0.00,,2013-03-27 21:18:00,
2013-03-27 22:23:00,56.5,51.3,29.91,South,180,0.8,1.3,83,0.00,,,0.00,,2013-03-27 21:23:00,
2013-03-27 22:28:00,56.5,51.3,29.91,South,180,1.3,1.3,83,0.00,,,0.00,,2013-03-27 21:28:00,
2013-03-27 22:33:00,56.3,51.1,29.91,South,180,1.3,1.3,83,0.00,,,0.00,,2013-03-27 21:33:00,
2013-03-27 22:38:00,56.3,51.1,29.91,South,180,0.8,2.2,83,0.00,,,0.00,,2013-03-27 21:38:00,
2013-03-27 22:43:00,56.3,51.1,29.91,South,180,0.8,2.2,83,0.00,,,0.00,,2013-03-27 21:43:00,
2013-03-27 22:53:00,56.1,51.3,29.91,SE,135,1.7,1.7,84,0.00,,,0.00,,2013-03-27 21:53:00,
2013-03-27 22:58:00,56.1,51.3,29.88,SE,135,1.7,3.1,84,0.00,,,0.00,,2013-03-27 21:58:00,
2013-03-27 23:03:00,56.1,51.3,29.88,SE,135,2.2,0.0,84,0.00,,,0.00,,2013-03-27 22:03:00,
2013-03-27 23:08:00,56.1,51.3,29.88,SE,135,0.4,0.0,84,0.00,,,0.00,,2013-03-27 22:08:00,
2013-03-27 23:13:00,56.1,51.3,29.88,SE,135,1.3,1.7,84,0.00,,,0.00,,2013-03-27 22:13:00,
2013-03-27 23:18:00,56.1,51.3,29.85,East,90,1.3,1.7,84,0.00,,,0.00,,2013-03-27 22:18:00,
2013-03-27 23:23:00,55.9,51.1,29.85,East,90,0.8,1.7,84,0.00,,,0.00,,2013-03-27 22:23:00,
2013-03-27 23:28:00,55.9,51.1,29.88,East,90,2.2,3.1,84,0.00,,,0.00,,2013-03-27 22:28:00,
2013-03-27 23:33:00,55.8,51.3,29.88,SE,135,0.4,2.2,85,0.00,,,0.00,,2013-03-27 22:33:00,
2013-03-27 23:38:00,55.8,51.3,29.88,SE,135,1.7,0.0,85,0.00,,,0.00,,2013-03-27 22:38:00,
2013-03-27 23:43:00,55.8,50.9,29.88,SE,135,2.2,2.2,84,0.00,,,0.00,,2013-03-27 22:43:00,
2013-03-27 23:48:00,55.8,51.3,29.88,SE,135,1.3,3.1,85,0.00,,,0.00,,2013-03-27 22:48:00,
2013-03-27 23:53:00,55.6,51.1,29.88,SE,135,3.5,3.5,85,0.00,,,0.00,,2013-03-27 22:53:00,
2013-03-27 23:58:00,55.6,51.1,29.88,East,90,1.7,0.0,85,0.00,,,0.00,,2013-03-27 22:58:00,